ITY852 LIRF-DGAA

Flight info

Callsign ITY852
Flight time 5h 18m
Altitude 19000
Route KONUT L44 TURMO/N0461F330 DCT GISIG DCT ABDAB/N0459F340 UA743 TUC UP161 EBA UG362 BOD UG855 HOGAR/N0462F360 UG855 TMS/N0466F350 UA604 EREBO/N0464F360 UY212 DAMNA UQ594 NY UB726 KILMO DCT LITEX LITEX1B
Aircraft A21N/M-SDE2E3FGHIRWXY/LB1

Departure

Time 2026-05-06 15:52
Airport Rome–Fiumicino Leonardo da Vinci International Airport (LIRF)

Arrival

Time 2026-05-06 21:10
Airport Kotoka International Airport (DGAA)
Time Latitude Longitude Altitude Speed Heading
2026-05-06 15:30 41.79686 12.25626 19 ft 0 kts 295°
2026-05-06 15:31 41.79688 12.25621 19 ft 0 kts 295°
2026-05-06 15:42 41.79683 12.25635 19 ft 4 kts 295°
2026-05-06 15:42 41.79673 12.25661 19 ft 4 kts 309°
2026-05-06 15:42 41.79655 12.25673 19 ft 4 kts 12°
2026-05-06 15:43 41.79645 12.25669 19 ft 4 kts 25°
2026-05-06 15:43 41.79666 12.25683 19 ft 1 kts 25°
2026-05-06 15:46 41.79667 12.25683 19 ft 1 kts 25°
2026-05-06 15:46 41.79685 12.25695 19 ft 7 kts 25°
2026-05-06 15:46 41.79753 12.25738 19 ft 14 kts 26°
2026-05-06 15:46 41.79844 12.25798 21 ft 15 kts 33°
2026-05-06 15:47 41.79938 12.25864 21 ft 16 kts 25°
2026-05-06 15:47 41.80039 12.25925 19 ft 16 kts 25°
2026-05-06 15:47 41.80143 12.25990 19 ft 17 kts 25°
2026-05-06 15:47 41.80250 12.26056 19 ft 17 kts 25°
2026-05-06 15:48 41.80360 12.26126 22 ft 18 kts 25°
2026-05-06 15:48 41.80473 12.26176 21 ft 17 kts 12°
2026-05-06 15:48 41.80544 12.26297 21 ft 18 kts 71°
2026-05-06 15:48 41.80586 12.26456 21 ft 18 kts 70°
2026-05-06 15:49 41.80630 12.26617 21 ft 19 kts 69°
2026-05-06 15:49 41.80676 12.26781 20 ft 19 kts 69°
2026-05-06 15:49 41.80721 12.26944 21 ft 18 kts 70°
2026-05-06 15:49 41.80800 12.27046 19 ft 16 kts 343°
2026-05-06 15:50 41.80868 12.27013 19 ft 5 kts 341°
2026-05-06 15:50 41.80875 12.27009 19 ft 0 kts 340°
2026-05-06 15:50 41.80911 12.26992 19 ft 8 kts 340°
2026-05-06 15:51 41.80953 12.26909 18 ft 16 kts 255°
2026-05-06 15:51 41.80888 12.26670 21 ft 55 kts 249°
2026-05-06 15:51 41.80674 12.25893 24 ft 122 kts 250°
2026-05-06 15:51 41.80305 12.24561 37 ft 176 kts 249°
2026-05-06 15:52 41.79896 12.22966 483 ft 186 kts 252°
2026-05-06 15:52 41.79543 12.21266 1071 ft 191 kts 253°
2026-05-06 15:52 41.79243 12.19500 1599 ft 200 kts 265°
2026-05-06 15:52 41.79203 12.17581 2094 ft 211 kts 268°
2026-05-06 15:53 41.79067 12.15569 2566 ft 222 kts 251°
2026-05-06 15:53 41.78256 12.13812 3108 ft 225 kts 224°
2026-05-06 15:53 41.77088 12.12392 3774 ft 228 kts 221°
2026-05-06 15:53 41.75858 12.10943 4202 ft 244 kts 221°
2026-05-06 15:54 41.74572 12.09388 4748 ft 253 kts 222°
2026-05-06 15:54 41.73184 12.07875 5310 ft 264 kts 208°
2026-05-06 15:54 41.71423 12.07140 5903 ft 269 kts 187°
2026-05-06 15:54 41.69546 12.06907 6623 ft 272 kts 184°
2026-05-06 15:55 41.67674 12.06717 7321 ft 274 kts 185°
2026-05-06 15:55 41.65763 12.06502 8013 ft 277 kts 185°
2026-05-06 15:55 41.63832 12.06268 8683 ft 280 kts 186°
2026-05-06 15:55 41.61882 12.06020 9337 ft 283 kts 186°
2026-05-06 15:56 41.59916 12.05764 9980 ft 286 kts 186°
2026-05-06 15:56 41.57896 12.05499 10374 ft 299 kts 186°
2026-05-06 15:56 41.55766 12.05215 10625 ft 316 kts 186°
2026-05-06 15:56 41.53519 12.04914 10863 ft 333 kts 186°
2026-05-06 15:57 41.51155 12.04600 11084 ft 350 kts 186°
2026-05-06 15:57 41.48677 12.04269 11299 ft 366 kts 186°
2026-05-06 15:57 41.46096 12.03926 11507 ft 381 kts 186°
2026-05-06 15:57 41.43414 12.03569 11709 ft 394 kts 186°
2026-05-06 15:58 41.40663 12.03202 12076 ft 400 kts 186°
2026-05-06 15:58 41.37882 12.02833 12520 ft 403 kts 186°
2026-05-06 15:58 41.35091 12.02461 12989 ft 405 kts 186°
2026-05-06 15:58 41.32280 12.02089 13482 ft 407 kts 186°
2026-05-06 15:59 41.29458 12.01638 13949 ft 409 kts 191°
2026-05-06 15:59 41.26708 12.00637 14380 ft 410 kts 198°
2026-05-06 15:59 41.23994 11.99450 14847 ft 412 kts 199°
2026-05-06 15:59 41.21256 11.98246 15386 ft 415 kts 199°
2026-05-06 16:00 41.19436 11.97456 15737 ft 416 kts 199°
2026-05-06 16:00 41.16670 11.96263 16236 ft 418 kts 199°
2026-05-06 16:00 41.12983 11.94699 16865 ft 421 kts 199°
2026-05-06 16:00 41.10181 11.93508 17334 ft 423 kts 199°
2026-05-06 16:01 41.08315 11.92711 17640 ft 425 kts 199°
2026-05-06 16:01 41.05459 11.91487 18080 ft 427 kts 199°
2026-05-06 16:01 41.02624 11.90275 18497 ft 429 kts 199°
2026-05-06 16:01 40.99807 11.89074 18872 ft 432 kts 199°
2026-05-06 16:02 40.96945 11.87857 19014 ft 432 kts 199°
2026-05-06 16:02 40.94075 11.86643 19028 ft 433 kts 199°
2026-05-06 16:02 40.91208 11.85439 19038 ft 432 kts 199°
2026-05-06 16:02 40.88337 11.84228 19293 ft 435 kts 199°
2026-05-06 16:03 40.85445 11.83005 19696 ft 437 kts 199°
2026-05-06 16:03 40.82548 11.81780 20094 ft 438 kts 200°
2026-05-06 16:03 40.79636 11.80549 20464 ft 441 kts 200°
2026-05-06 16:03 40.76702 11.79310 20836 ft 443 kts 200°
2026-05-06 16:04 40.73760 11.78066 21251 ft 446 kts 200°
2026-05-06 16:04 40.70797 11.76816 21682 ft 448 kts 200°
2026-05-06 16:04 40.67814 11.75560 22075 ft 451 kts 200°
2026-05-06 16:04 40.64822 11.74300 22441 ft 453 kts 200°
2026-05-06 16:05 40.61807 11.73030 22794 ft 455 kts 200°
2026-05-06 16:05 40.58782 11.71761 23128 ft 457 kts 200°
2026-05-06 16:05 40.55740 11.70482 23462 ft 459 kts 200°
2026-05-06 16:05 40.52728 11.69220 23842 ft 460 kts 200°
2026-05-06 16:06 40.49684 11.67951 24247 ft 459 kts 200°
2026-05-06 16:06 40.46645 11.66682 24659 ft 458 kts 200°
2026-05-06 16:06 40.43611 11.65414 25073 ft 457 kts 200°
2026-05-06 16:06 40.40595 11.64155 25553 ft 453 kts 200°
2026-05-06 16:07 40.37595 11.62904 26039 ft 450 kts 200°
2026-05-06 16:07 40.34609 11.61658 26432 ft 450 kts 200°
2026-05-06 16:07 40.31630 11.60416 26781 ft 450 kts 200°
2026-05-06 16:07 40.28648 11.59174 27116 ft 450 kts 200°
2026-05-06 16:08 40.25667 11.57932 27465 ft 449 kts 200°
2026-05-06 16:08 40.22693 11.56693 27834 ft 448 kts 200°
2026-05-06 16:08 40.19719 11.55456 28155 ft 448 kts 200°
2026-05-06 16:08 40.16754 11.54225 28512 ft 447 kts 200°
2026-05-06 16:09 40.13791 11.52996 28835 ft 446 kts 199°
2026-05-06 16:09 40.10837 11.51777 29149 ft 445 kts 199°
2026-05-06 16:09 40.07880 11.50554 29453 ft 445 kts 200°
2026-05-06 16:09 40.04935 11.49334 29756 ft 444 kts 199°
2026-05-06 16:10 40.01992 11.48118 30026 ft 444 kts 199°
2026-05-06 16:10 39.99046 11.46904 30308 ft 443 kts 199°
2026-05-06 16:10 39.96112 11.45695 30561 ft 443 kts 199°
2026-05-06 16:10 39.93178 11.44486 30799 ft 442 kts 199°
2026-05-06 16:11 39.90280 11.43296 31028 ft 442 kts 199°
2026-05-06 16:11 39.87345 11.42090 31254 ft 442 kts 199°
2026-05-06 16:11 39.84407 11.40884 31467 ft 442 kts 199°
2026-05-06 16:11 39.81476 11.39683 31671 ft 442 kts 199°
2026-05-06 16:12 39.78548 11.38483 31911 ft 441 kts 199°
2026-05-06 16:12 39.75620 11.37284 32114 ft 440 kts 199°
2026-05-06 16:12 39.72697 11.36088 32305 ft 440 kts 199°
2026-05-06 16:12 39.69779 11.34897 32499 ft 439 kts 199°
2026-05-06 16:13 39.66866 11.33706 32691 ft 439 kts 199°
2026-05-06 16:13 39.63956 11.32516 32877 ft 438 kts 199°
2026-05-06 16:13 39.58136 11.30144 32976 ft 438 kts 199°
2026-05-06 16:14 39.52326 11.27782 32956 ft 438 kts 199°
2026-05-06 16:14 39.46515 11.25421 32953 ft 438 kts 199°
2026-05-06 16:15 39.40701 11.23063 32950 ft 438 kts 199°
2026-05-06 16:15 39.34916 11.20726 32951 ft 438 kts 199°
2026-05-06 16:16 39.29100 11.18376 32942 ft 438 kts 199°
2026-05-06 16:16 39.23281 11.16027 32941 ft 438 kts 199°
2026-05-06 16:17 39.17452 11.13680 32941 ft 438 kts 199°
2026-05-06 16:17 39.11623 11.11339 32941 ft 439 kts 199°
2026-05-06 16:18 39.05788 11.08996 32937 ft 439 kts 199°
2026-05-06 16:18 38.99950 11.06660 32930 ft 439 kts 199°
2026-05-06 16:19 38.94110 11.04322 32939 ft 440 kts 199°
2026-05-06 16:19 38.88305 11.02006 32941 ft 440 kts 199°
2026-05-06 16:20 38.82454 10.99673 32940 ft 440 kts 199°
2026-05-06 16:20 38.76594 10.97334 32940 ft 441 kts 199°
2026-05-06 16:21 38.70739 10.95001 32932 ft 441 kts 199°
2026-05-06 16:21 38.64879 10.92674 32931 ft 441 kts 199°
2026-05-06 16:22 38.59012 10.90349 32931 ft 441 kts 199°
2026-05-06 16:22 38.53170 10.88037 32927 ft 442 kts 199°
2026-05-06 16:23 38.47292 10.85717 32911 ft 442 kts 199°
2026-05-06 16:23 38.41410 10.83400 32916 ft 442 kts 199°
2026-05-06 16:24 38.35528 10.81085 32911 ft 442 kts 199°
2026-05-06 16:24 38.29644 10.78770 32914 ft 442 kts 199°
2026-05-06 16:25 38.23751 10.76455 32913 ft 443 kts 199°
2026-05-06 16:25 38.17895 10.74163 32916 ft 443 kts 199°
2026-05-06 16:26 38.12003 10.71859 32906 ft 443 kts 199°
2026-05-06 16:26 38.06103 10.69556 32907 ft 443 kts 199°
2026-05-06 16:27 38.00205 10.67257 32907 ft 443 kts 199°
2026-05-06 16:27 37.94307 10.64960 32899 ft 445 kts 199°
2026-05-06 16:28 37.88420 10.62673 32905 ft 445 kts 199°
2026-05-06 16:28 37.82502 10.60380 32908 ft 445 kts 199°
2026-05-06 16:29 37.76583 10.58089 32898 ft 445 kts 199°
2026-05-06 16:29 37.70660 10.55794 32900 ft 445 kts 199°
2026-05-06 16:30 37.65742 10.53892 32898 ft 445 kts 199°
2026-05-06 16:30 37.58822 10.51225 32901 ft 445 kts 199°
2026-05-06 16:31 37.52902 10.48944 32904 ft 445 kts 199°
2026-05-06 16:31 37.46982 10.46670 32897 ft 445 kts 199°
2026-05-06 16:32 37.41048 10.44392 32904 ft 445 kts 199°
2026-05-06 16:32 37.35161 10.42137 32906 ft 445 kts 199°
2026-05-06 16:33 37.29198 10.39854 32902 ft 445 kts 199°
2026-05-06 16:34 37.20337 10.36468 32907 ft 445 kts 199°
2026-05-06 16:34 37.14406 10.34220 32899 ft 446 kts 199°
2026-05-06 16:35 37.08465 10.31961 32902 ft 446 kts 200°
2026-05-06 16:35 37.02525 10.29699 32898 ft 446 kts 200°
2026-05-06 16:36 36.96587 10.27445 32896 ft 446 kts 200°
2026-05-06 16:36 36.90644 10.25196 32896 ft 446 kts 200°
2026-05-06 16:37 36.84694 10.23109 32896 ft 449 kts 193°
2026-05-06 16:37 36.78454 10.22208 32912 ft 452 kts 189°
2026-05-06 16:38 36.72191 10.21411 32904 ft 452 kts 190°
2026-05-06 16:38 36.65926 10.20591 32898 ft 452 kts 190°
2026-05-06 16:39 36.59658 10.19769 32897 ft 453 kts 191°
2026-05-06 16:39 36.53397 10.18949 32906 ft 453 kts 191°
2026-05-06 16:40 36.47158 10.18133 32890 ft 453 kts 191°
2026-05-06 16:40 36.40841 10.17306 32887 ft 453 kts 191°
2026-05-06 16:41 36.34603 10.16494 33087 ft 454 kts 191°
2026-05-06 16:41 36.31466 10.16088 33284 ft 453 kts 191°
2026-05-06 16:41 36.28334 10.15684 33441 ft 453 kts 191°
2026-05-06 16:41 36.25198 10.15279 33592 ft 453 kts 192°
2026-05-06 16:42 36.22059 10.14872 33747 ft 452 kts 192°
2026-05-06 16:42 36.18931 10.14465 33875 ft 452 kts 192°
2026-05-06 16:42 36.15806 10.14059 33892 ft 451 kts 192°
2026-05-06 16:43 36.09571 10.13254 33856 ft 450 kts 192°
2026-05-06 16:43 36.03332 10.12459 33851 ft 451 kts 192°
2026-05-06 16:44 35.97088 10.11662 33851 ft 451 kts 192°
2026-05-06 16:44 35.90889 10.10869 33851 ft 451 kts 192°
2026-05-06 16:45 35.84645 10.10075 33850 ft 451 kts 192°
2026-05-06 16:45 35.78409 10.09278 33850 ft 451 kts 192°
2026-05-06 16:46 35.72168 10.08474 33850 ft 451 kts 192°
2026-05-06 16:46 35.65923 10.07679 33851 ft 451 kts 192°
2026-05-06 16:47 35.59686 10.06889 33851 ft 451 kts 192°
2026-05-06 16:47 35.53439 10.06104 33848 ft 451 kts 192°
2026-05-06 16:48 35.47193 10.05312 33841 ft 451 kts 192°
2026-05-06 16:48 35.42009 10.04657 33840 ft 451 kts 192°
2026-05-06 16:49 35.34747 10.03742 33834 ft 451 kts 192°
2026-05-06 16:49 35.29512 10.03090 33831 ft 451 kts 192°
2026-05-06 16:50 35.23267 10.02312 33821 ft 451 kts 192°
2026-05-06 16:50 35.17018 10.01534 33812 ft 452 kts 192°
2026-05-06 16:51 35.10761 10.00752 33804 ft 452 kts 192°
2026-05-06 16:51 35.04545 9.99971 33797 ft 452 kts 192°
2026-05-06 16:52 34.98287 9.99189 33791 ft 451 kts 192°
2026-05-06 16:52 34.92031 9.98409 33781 ft 451 kts 192°
2026-05-06 16:53 34.85781 9.97629 33782 ft 451 kts 192°
2026-05-06 16:53 34.79527 9.96853 33780 ft 451 kts 192°
2026-05-06 16:54 34.73320 9.96082 33766 ft 451 kts 192°
2026-05-06 16:54 34.67063 9.95306 33750 ft 452 kts 192°
2026-05-06 16:55 34.60815 9.94531 33741 ft 451 kts 192°
2026-05-06 16:55 34.54562 9.93758 33741 ft 451 kts 192°
2026-05-06 16:56 34.48310 9.92984 33731 ft 451 kts 192°
2026-05-06 16:56 34.42104 9.92219 33731 ft 452 kts 192°
2026-05-06 16:57 34.35766 9.92009 33725 ft 457 kts 186°
2026-05-06 16:57 34.29400 9.92029 33710 ft 458 kts 186°
2026-05-06 16:58 34.23023 9.92034 33710 ft 458 kts 186°
2026-05-06 16:58 34.16652 9.92033 33711 ft 458 kts 186°
2026-05-06 16:59 34.10276 9.92029 33709 ft 458 kts 186°
2026-05-06 16:59 34.03905 9.92034 33703 ft 458 kts 186°
2026-05-06 17:00 33.97573 9.92032 33704 ft 458 kts 186°
2026-05-06 17:00 33.91203 9.92031 33704 ft 458 kts 186°
2026-05-06 17:01 33.84828 9.92034 33703 ft 458 kts 186°
2026-05-06 17:01 33.78454 9.92029 33698 ft 458 kts 186°
2026-05-06 17:02 33.72131 9.91667 33697 ft 448 kts 198°
2026-05-06 17:02 33.66156 9.89732 33702 ft 443 kts 202°
2026-05-06 17:03 33.60247 9.87694 33703 ft 444 kts 202°
2026-05-06 17:03 33.54299 9.85689 33701 ft 444 kts 201°
2026-05-06 17:04 33.48342 9.83697 33700 ft 444 kts 201°
2026-05-06 17:04 33.42378 9.81699 33699 ft 445 kts 201°
2026-05-06 17:05 33.36411 9.79697 33702 ft 446 kts 201°
2026-05-06 17:05 33.30427 9.77704 33702 ft 446 kts 201°
2026-05-06 17:06 33.24476 9.75727 33700 ft 446 kts 201°
2026-05-06 17:06 33.18493 9.73739 33699 ft 446 kts 201°
2026-05-06 17:07 33.12505 9.71755 33701 ft 446 kts 201°
2026-05-06 17:07 33.06520 9.69771 33704 ft 447 kts 201°
2026-05-06 17:08 33.00526 9.67788 33700 ft 447 kts 201°
2026-05-06 17:08 32.94530 9.65809 33695 ft 447 kts 201°
2026-05-06 17:09 32.88536 9.63830 33690 ft 447 kts 201°
2026-05-06 17:09 32.82537 9.61854 33689 ft 447 kts 201°
2026-05-06 17:10 32.76518 9.59873 33690 ft 448 kts 201°
2026-05-06 17:10 32.70544 9.57910 33688 ft 448 kts 201°
2026-05-06 17:11 32.64531 9.55938 33689 ft 449 kts 200°
2026-05-06 17:11 32.58503 9.53965 33690 ft 449 kts 200°
2026-05-06 17:12 32.52474 9.51994 33683 ft 449 kts 200°
2026-05-06 17:12 32.46446 9.50023 33677 ft 449 kts 200°
2026-05-06 17:13 32.40412 9.48056 33681 ft 450 kts 200°
2026-05-06 17:13 32.34371 9.46088 33683 ft 450 kts 200°
2026-05-06 17:14 32.28334 9.44125 33680 ft 450 kts 200°
2026-05-06 17:14 32.22335 9.42177 33678 ft 450 kts 200°
2026-05-06 17:15 32.16297 9.40218 33683 ft 450 kts 200°
2026-05-06 17:15 32.10264 9.38261 33680 ft 450 kts 200°
2026-05-06 17:16 32.04229 9.36309 33681 ft 450 kts 200°
2026-05-06 17:16 31.98182 9.34357 33684 ft 450 kts 200°
2026-05-06 17:17 31.92135 9.32404 33693 ft 451 kts 200°
2026-05-06 17:17 31.86075 9.30453 33693 ft 452 kts 200°
2026-05-06 17:18 31.80012 9.28505 33693 ft 452 kts 200°
2026-05-06 17:18 31.73947 9.26553 33693 ft 452 kts 200°
2026-05-06 17:19 31.68210 9.23898 33690 ft 443 kts 214°
2026-05-06 17:19 31.62921 9.20201 33691 ft 442 kts 215°
2026-05-06 17:20 31.57636 9.16499 33695 ft 442 kts 215°
2026-05-06 17:20 31.52328 9.12824 33698 ft 443 kts 215°
2026-05-06 17:21 31.47022 9.09155 33701 ft 443 kts 215°
2026-05-06 17:21 31.41712 9.05494 33698 ft 443 kts 215°
2026-05-06 17:22 31.36405 9.01833 33707 ft 443 kts 214°
2026-05-06 17:22 31.31128 8.98199 33709 ft 443 kts 214°
2026-05-06 17:23 31.25778 8.94522 33710 ft 443 kts 214°
2026-05-06 17:23 31.20491 8.90895 33712 ft 443 kts 214°
2026-05-06 17:24 31.15169 8.87255 33719 ft 443 kts 214°
2026-05-06 17:24 31.09811 8.83589 33725 ft 443 kts 214°
2026-05-06 17:25 31.04520 8.79971 33728 ft 444 kts 214°
2026-05-06 17:25 30.99194 8.76333 33727 ft 444 kts 214°
2026-05-06 17:26 30.93865 8.72698 33731 ft 444 kts 214°
2026-05-06 17:26 30.88533 8.69055 33740 ft 444 kts 214°
2026-05-06 17:27 30.83203 8.65426 33742 ft 444 kts 214°
2026-05-06 17:27 30.77867 8.61802 33741 ft 444 kts 214°
2026-05-06 17:28 30.72533 8.58182 33742 ft 444 kts 214°
2026-05-06 17:28 30.67192 8.54562 33748 ft 444 kts 214°
2026-05-06 17:29 30.61874 8.50961 33752 ft 444 kts 214°
2026-05-06 17:29 30.56524 8.47348 33751 ft 445 kts 214°
2026-05-06 17:30 30.51175 8.43737 33742 ft 445 kts 214°
2026-05-06 17:30 30.45827 8.40130 33751 ft 445 kts 214°
2026-05-06 17:31 30.40486 8.36489 33753 ft 445 kts 214°
2026-05-06 17:31 30.35147 8.32851 33760 ft 445 kts 214°
2026-05-06 17:32 30.29808 8.29221 33746 ft 445 kts 214°
2026-05-06 17:32 30.24467 8.25595 33746 ft 445 kts 214°
2026-05-06 17:33 30.19160 8.22004 33761 ft 444 kts 214°
2026-05-06 17:33 30.13819 8.18391 33763 ft 445 kts 214°
2026-05-06 17:34 30.08477 8.14779 33769 ft 445 kts 214°
2026-05-06 17:34 30.03134 8.11169 33761 ft 445 kts 214°
2026-05-06 17:35 29.97795 8.07550 33762 ft 445 kts 214°
2026-05-06 17:35 29.92458 8.03938 33754 ft 444 kts 214°
2026-05-06 17:36 29.85357 7.99140 33768 ft 445 kts 214°
2026-05-06 17:36 29.80012 7.95537 33776 ft 445 kts 214°
2026-05-06 17:37 29.73806 7.91340 33762 ft 445 kts 214°
2026-05-06 17:37 29.69332 7.88325 33774 ft 444 kts 214°
2026-05-06 17:38 29.64000 7.84726 33766 ft 445 kts 214°
2026-05-06 17:38 29.58662 7.81133 33767 ft 445 kts 214°
2026-05-06 17:39 29.53324 7.77542 33781 ft 444 kts 214°
2026-05-06 17:39 29.47991 7.73955 33782 ft 444 kts 214°
2026-05-06 17:40 29.42659 7.70346 33779 ft 444 kts 214°
2026-05-06 17:40 29.37366 7.66769 33781 ft 444 kts 214°
2026-05-06 17:41 29.32050 7.63163 33776 ft 444 kts 214°
2026-05-06 17:41 29.26729 7.59558 33780 ft 444 kts 214°
2026-05-06 17:42 29.21404 7.55964 33781 ft 444 kts 214°
2026-05-06 17:42 29.16086 7.52379 33781 ft 444 kts 214°
2026-05-06 17:43 29.10803 7.48816 33781 ft 443 kts 214°
2026-05-06 17:43 29.05483 7.45240 33781 ft 444 kts 214°
2026-05-06 17:44 29.00163 7.41666 33781 ft 444 kts 214°
2026-05-06 17:44 28.94843 7.38098 33782 ft 443 kts 213°
2026-05-06 17:45 28.89516 7.34531 33789 ft 443 kts 214°
2026-05-06 17:45 28.84193 7.30973 33790 ft 443 kts 213°
2026-05-06 17:46 28.78861 7.27405 33790 ft 444 kts 213°
2026-05-06 17:46 28.73527 7.23845 33790 ft 444 kts 213°
2026-05-06 17:47 28.68223 7.20311 33790 ft 444 kts 213°
2026-05-06 17:47 28.62879 7.16748 33783 ft 444 kts 213°
2026-05-06 17:48 28.57539 7.13198 33784 ft 445 kts 213°
2026-05-06 17:48 28.52195 7.09647 33790 ft 444 kts 213°
2026-05-06 17:49 28.46858 7.06101 33790 ft 444 kts 213°
2026-05-06 17:49 28.41516 7.02562 33791 ft 445 kts 213°
2026-05-06 17:50 28.36191 6.99043 33790 ft 445 kts 213°
2026-05-06 17:50 28.30841 6.95502 33789 ft 445 kts 213°
2026-05-06 17:51 28.25488 6.91965 33790 ft 445 kts 213°
2026-05-06 17:51 28.20135 6.88432 33791 ft 445 kts 213°
2026-05-06 17:52 28.14763 6.84915 33797 ft 446 kts 211°
2026-05-06 17:52 28.11892 6.83548 33796 ft 451 kts 200°
2026-05-06 17:52 28.08844 6.82646 33803 ft 453 kts 197°
2026-05-06 17:53 28.02693 6.81039 33811 ft 453 kts 197°
2026-05-06 17:53 27.96551 6.79399 33818 ft 454 kts 197°
2026-05-06 17:54 27.90397 6.77749 33821 ft 454 kts 197°
2026-05-06 17:54 27.84286 6.76107 33820 ft 454 kts 197°
2026-05-06 17:55 27.78130 6.74458 33820 ft 454 kts 197°
2026-05-06 17:55 27.71972 6.72805 33820 ft 454 kts 197°
2026-05-06 17:56 27.65814 6.71161 33830 ft 454 kts 197°
2026-05-06 17:56 27.59657 6.69510 33830 ft 454 kts 197°
2026-05-06 17:57 27.53510 6.67850 33830 ft 454 kts 197°
2026-05-06 17:57 27.47352 6.66202 33830 ft 455 kts 197°
2026-05-06 17:58 27.41237 6.64564 33831 ft 455 kts 197°
2026-05-06 17:58 27.35075 6.62920 33829 ft 455 kts 197°
2026-05-06 17:59 27.28916 6.61278 33828 ft 455 kts 197°
2026-05-06 17:59 27.22754 6.59638 33854 ft 455 kts 197°
2026-05-06 18:00 27.16594 6.58002 33859 ft 455 kts 197°
2026-05-06 18:00 27.10440 6.56365 33860 ft 455 kts 197°
2026-05-06 18:01 27.04280 6.54727 33859 ft 455 kts 197°
2026-05-06 18:01 26.98156 6.53106 33861 ft 455 kts 197°
2026-05-06 18:02 26.91959 6.51462 33861 ft 455 kts 197°
2026-05-06 18:02 26.85803 6.49838 33858 ft 454 kts 197°
2026-05-06 18:03 26.79704 6.48230 33862 ft 453 kts 197°
2026-05-06 18:03 26.73563 6.46611 33860 ft 453 kts 197°
2026-05-06 18:04 26.67425 6.44992 33860 ft 453 kts 197°
2026-05-06 18:04 26.61288 6.43376 33860 ft 453 kts 197°
2026-05-06 18:05 26.55154 6.41764 33860 ft 453 kts 197°
2026-05-06 18:05 26.49012 6.40149 33860 ft 453 kts 197°
2026-05-06 18:06 26.42874 6.38540 33878 ft 453 kts 197°
2026-05-06 18:06 26.36745 6.36932 33881 ft 452 kts 197°
2026-05-06 18:07 26.30657 6.35338 33887 ft 453 kts 197°
2026-05-06 18:07 26.24523 6.33737 33895 ft 452 kts 197°
2026-05-06 18:08 26.18392 6.32135 33890 ft 452 kts 197°
2026-05-06 18:08 26.12261 6.30536 33893 ft 452 kts 197°
2026-05-06 18:09 26.06123 6.28937 33890 ft 452 kts 196°
2026-05-06 18:09 25.99995 6.27341 33890 ft 452 kts 196°
2026-05-06 18:10 25.93874 6.25720 33895 ft 452 kts 197°
2026-05-06 18:10 25.87747 6.24107 33897 ft 452 kts 197°
2026-05-06 18:11 25.81662 6.22493 33896 ft 452 kts 197°
2026-05-06 18:11 25.75539 6.20858 33900 ft 452 kts 197°
2026-05-06 18:12 25.69418 6.19240 33907 ft 452 kts 197°
2026-05-06 18:12 25.63295 6.17623 33911 ft 453 kts 197°
2026-05-06 18:13 25.57161 6.16002 33914 ft 453 kts 197°
2026-05-06 18:13 25.51025 6.14388 33920 ft 453 kts 197°
2026-05-06 18:14 25.44887 6.12771 33921 ft 454 kts 197°
2026-05-06 18:14 25.38747 6.11152 33919 ft 454 kts 197°
2026-05-06 18:15 25.32600 6.09535 33928 ft 454 kts 197°
2026-05-06 18:15 25.26442 6.07916 33931 ft 455 kts 197°
2026-05-06 18:16 25.20285 6.06299 33930 ft 455 kts 197°
2026-05-06 18:16 25.14147 6.04686 33947 ft 456 kts 197°
2026-05-06 18:17 25.07974 6.03067 33949 ft 456 kts 197°
2026-05-06 18:17 25.01795 6.01450 33937 ft 457 kts 197°
2026-05-06 18:18 24.95602 5.99833 33949 ft 457 kts 197°
2026-05-06 18:18 24.89410 5.98213 33957 ft 457 kts 197°
2026-05-06 18:19 24.83225 5.96600 33956 ft 457 kts 197°
2026-05-06 18:19 24.77028 5.94984 33964 ft 458 kts 197°
2026-05-06 18:20 24.70820 5.93368 33960 ft 458 kts 197°
2026-05-06 18:20 24.64648 5.91756 33967 ft 458 kts 197°
2026-05-06 18:21 24.58434 5.90142 33968 ft 459 kts 197°
2026-05-06 18:21 24.52212 5.88528 33974 ft 459 kts 197°
2026-05-06 18:22 24.45986 5.86915 33973 ft 459 kts 198°
2026-05-06 18:22 24.39757 5.85301 33980 ft 460 kts 197°
2026-05-06 18:23 24.33515 5.83691 33986 ft 461 kts 198°
2026-05-06 18:23 24.27273 5.82073 33989 ft 461 kts 198°
2026-05-06 18:24 24.22087 5.80736 33992 ft 461 kts 197°
2026-05-06 18:24 24.14828 5.78865 34000 ft 461 kts 198°
2026-05-06 18:25 24.08584 5.77257 34003 ft 461 kts 198°
2026-05-06 18:25 24.02337 5.75646 34010 ft 461 kts 198°
2026-05-06 18:26 23.97100 5.74300 34010 ft 461 kts 198°
2026-05-06 18:26 23.90894 5.72703 34014 ft 461 kts 198°
2026-05-06 18:27 23.84628 5.71094 34030 ft 461 kts 198°
2026-05-06 18:27 23.78379 5.69495 34026 ft 461 kts 198°
2026-05-06 18:28 23.72127 5.67892 34027 ft 462 kts 198°
2026-05-06 18:28 23.65871 5.66289 34044 ft 461 kts 197°
2026-05-06 18:29 23.59619 5.64693 34034 ft 462 kts 197°
2026-05-06 18:29 23.53363 5.63094 34044 ft 461 kts 197°
2026-05-06 18:30 23.47107 5.61500 34031 ft 462 kts 198°
2026-05-06 18:30 23.40853 5.59901 34035 ft 462 kts 197°
2026-05-06 18:31 23.34587 5.58305 34050 ft 462 kts 197°
2026-05-06 18:31 23.28325 5.56713 34050 ft 462 kts 197°
2026-05-06 18:32 23.22109 5.55131 34049 ft 462 kts 197°
2026-05-06 18:32 23.15845 5.53542 34048 ft 463 kts 197°
2026-05-06 18:33 23.09569 5.51949 34051 ft 463 kts 197°
2026-05-06 18:33 23.03298 5.50360 34050 ft 463 kts 197°
2026-05-06 18:34 22.97024 5.48776 34052 ft 463 kts 197°
2026-05-06 18:34 22.90750 5.47185 34048 ft 463 kts 197°
2026-05-06 18:35 22.84460 5.45627 34046 ft 465 kts 194°
2026-05-06 18:35 22.81216 5.45345 34043 ft 472 kts 182°
2026-05-06 18:35 22.77944 5.45885 34047 ft 480 kts 167°
2026-05-06 18:36 22.71686 5.48545 34054 ft 484 kts 160°
2026-05-06 18:36 22.65502 5.51327 34051 ft 484 kts 161°
2026-05-06 18:37 22.59249 5.54060 34049 ft 484 kts 161°
2026-05-06 18:37 22.52995 5.56781 34050 ft 485 kts 161°
2026-05-06 18:38 22.46737 5.59506 34050 ft 485 kts 161°
2026-05-06 18:38 22.40474 5.62225 34049 ft 485 kts 161°
2026-05-06 18:39 22.34202 5.64949 34049 ft 485 kts 161°
2026-05-06 18:40 22.24799 5.69036 34036 ft 486 kts 161°
2026-05-06 18:40 22.18528 5.71750 34031 ft 486 kts 161°
2026-05-06 18:41 22.12251 5.74460 34045 ft 486 kts 161°
2026-05-06 18:41 22.05977 5.77175 34044 ft 486 kts 161°
2026-05-06 18:42 21.99730 5.79875 34053 ft 486 kts 161°
2026-05-06 18:42 21.93446 5.82588 34060 ft 486 kts 161°
2026-05-06 18:43 21.87161 5.85301 34058 ft 486 kts 161°
2026-05-06 18:43 21.80869 5.88009 34050 ft 486 kts 161°
2026-05-06 18:44 21.74588 5.90714 34049 ft 486 kts 161°
2026-05-06 18:44 21.68348 5.93397 34048 ft 486 kts 161°
2026-05-06 18:45 21.62063 5.96100 34034 ft 486 kts 161°
2026-05-06 18:45 21.55780 5.98798 34045 ft 486 kts 161°
2026-05-06 18:46 21.49496 6.01491 34035 ft 486 kts 161°
2026-05-06 18:46 21.43207 6.04189 34033 ft 487 kts 161°
2026-05-06 18:47 21.36910 6.06885 34032 ft 487 kts 161°
2026-05-06 18:47 21.30609 6.09580 34029 ft 487 kts 161°
2026-05-06 18:48 21.24301 6.12275 34031 ft 488 kts 161°
2026-05-06 18:48 21.18041 6.14948 34026 ft 488 kts 161°
2026-05-06 18:49 21.11728 6.17639 34024 ft 488 kts 161°
2026-05-06 18:49 21.05417 6.20327 34016 ft 488 kts 161°
2026-05-06 18:50 20.99102 6.23019 34014 ft 488 kts 161°
2026-05-06 18:50 20.92782 6.25707 34012 ft 488 kts 161°
2026-05-06 18:51 20.86465 6.28391 34005 ft 489 kts 161°
2026-05-06 18:51 20.80141 6.31077 34000 ft 489 kts 161°
2026-05-06 18:52 20.73818 6.33760 33997 ft 489 kts 161°
2026-05-06 18:52 20.67532 6.36423 33991 ft 489 kts 161°
2026-05-06 18:53 20.61205 6.39103 33991 ft 489 kts 161°
2026-05-06 18:53 20.54880 6.41779 33984 ft 489 kts 161°
2026-05-06 18:54 20.48550 6.44452 33980 ft 489 kts 161°
2026-05-06 18:54 20.42221 6.47125 33973 ft 489 kts 161°
2026-05-06 18:55 20.35890 6.49797 33968 ft 489 kts 161°
2026-05-06 18:55 20.29565 6.52462 33968 ft 489 kts 161°
2026-05-06 18:56 20.23280 6.55111 33963 ft 489 kts 161°
2026-05-06 18:56 20.16945 6.57752 33958 ft 488 kts 163°
2026-05-06 18:56 20.13678 6.58640 33937 ft 483 kts 175°
2026-05-06 18:57 20.10343 6.58793 33943 ft 476 kts 188°
2026-05-06 18:57 20.07101 6.58207 33955 ft 470 kts 200°
2026-05-06 18:57 20.04031 6.57061 33948 ft 467 kts 205°
2026-05-06 18:58 19.97985 6.54532 33937 ft 467 kts 205°
2026-05-06 18:58 19.91913 6.52058 33941 ft 468 kts 205°
2026-05-06 18:59 19.85819 6.49605 33931 ft 468 kts 204°
2026-05-06 18:59 19.79723 6.47170 33931 ft 468 kts 204°
2026-05-06 19:00 19.73620 6.44748 33930 ft 468 kts 204°
2026-05-06 19:00 19.67566 6.42332 33923 ft 468 kts 204°
2026-05-06 19:01 19.61470 6.39895 33921 ft 468 kts 204°
2026-05-06 19:01 19.55376 6.37460 33921 ft 468 kts 204°
2026-05-06 19:02 19.49282 6.35025 33912 ft 468 kts 204°
2026-05-06 19:02 19.43185 6.32594 33913 ft 468 kts 204°
2026-05-06 19:03 19.37092 6.30164 33913 ft 468 kts 204°
2026-05-06 19:03 19.30993 6.27738 33900 ft 467 kts 204°
2026-05-06 19:04 19.24941 6.25327 33895 ft 462 kts 204°
2026-05-06 19:04 19.18973 6.22955 33897 ft 462 kts 204°
2026-05-06 19:05 19.12909 6.20530 33898 ft 468 kts 204°
2026-05-06 19:05 19.06817 6.18106 33887 ft 468 kts 204°
2026-05-06 19:06 19.00719 6.15689 33890 ft 468 kts 204°
2026-05-06 19:06 18.94621 6.13271 33887 ft 467 kts 204°
2026-05-06 19:07 18.88595 6.10886 33879 ft 463 kts 204°
2026-05-06 19:07 18.82586 6.08506 33881 ft 464 kts 204°
2026-05-06 19:08 18.76496 6.06094 33889 ft 468 kts 204°
2026-05-06 19:08 18.70389 6.03683 33872 ft 468 kts 204°
2026-05-06 19:09 18.64286 6.01273 33870 ft 468 kts 204°
2026-05-06 19:09 18.58175 5.98862 33870 ft 468 kts 204°
2026-05-06 19:10 18.52155 5.96487 33868 ft 462 kts 204°
2026-05-06 19:10 18.46143 5.94121 33869 ft 464 kts 204°
2026-05-06 19:11 18.40050 5.91720 33862 ft 468 kts 204°
2026-05-06 19:11 18.33941 5.89316 33859 ft 468 kts 204°
2026-05-06 19:12 18.27835 5.86916 33859 ft 468 kts 204°
2026-05-06 19:12 18.22760 5.84922 33860 ft 468 kts 204°
2026-05-06 19:13 18.16681 5.82537 33855 ft 463 kts 204°
2026-05-06 19:13 18.09676 5.79787 33853 ft 465 kts 204°
2026-05-06 19:14 18.04594 5.77794 33852 ft 469 kts 204°
2026-05-06 19:14 17.98477 5.75400 33849 ft 469 kts 204°
2026-05-06 19:15 17.92361 5.73006 33850 ft 469 kts 204°
2026-05-06 19:15 17.86284 5.70632 33850 ft 468 kts 204°
2026-05-06 19:16 17.80208 5.68258 33843 ft 463 kts 204°
2026-05-06 19:16 17.74183 5.65903 33842 ft 465 kts 204°
2026-05-06 19:17 17.68077 5.63519 33842 ft 468 kts 204°
2026-05-06 19:17 17.61963 5.61136 33840 ft 468 kts 204°
2026-05-06 19:18 17.55849 5.58754 33840 ft 468 kts 204°
2026-05-06 19:18 17.49739 5.56374 33839 ft 467 kts 204°
2026-05-06 19:19 17.43710 5.54031 33838 ft 462 kts 204°
2026-05-06 19:19 17.37689 5.51689 33836 ft 465 kts 204°
2026-05-06 19:20 17.31583 5.49316 33835 ft 469 kts 203°
2026-05-06 19:20 17.25466 5.46938 33830 ft 469 kts 203°
2026-05-06 19:21 17.19343 5.44565 33822 ft 469 kts 203°
2026-05-06 19:21 17.13221 5.42191 33819 ft 467 kts 203°
2026-05-06 19:22 17.07161 5.39844 33818 ft 461 kts 203°
2026-05-06 19:22 17.01161 5.37519 33825 ft 466 kts 203°
2026-05-06 19:23 16.95054 5.35157 33820 ft 469 kts 203°
2026-05-06 19:23 16.88931 5.32791 33801 ft 469 kts 203°
2026-05-06 19:24 16.82808 5.30423 33800 ft 469 kts 203°
2026-05-06 19:24 16.76685 5.28059 33799 ft 467 kts 203°
2026-05-06 19:25 16.70625 5.25721 33797 ft 460 kts 203°
2026-05-06 19:25 16.64558 5.23383 33804 ft 469 kts 203°
2026-05-06 19:26 16.58430 5.21020 33792 ft 469 kts 203°
2026-05-06 19:26 16.52340 5.18674 33791 ft 469 kts 203°
2026-05-06 19:27 16.46213 5.16315 33791 ft 469 kts 203°
2026-05-06 19:27 16.40096 5.13974 33789 ft 466 kts 203°
2026-05-06 19:28 16.34057 5.11656 33789 ft 463 kts 203°
2026-05-06 19:28 16.27963 5.09313 33793 ft 469 kts 203°
2026-05-06 19:29 16.21826 5.06961 33790 ft 470 kts 203°
2026-05-06 19:29 16.15683 5.04606 33790 ft 470 kts 203°
2026-05-06 19:30 16.09549 5.02256 33789 ft 469 kts 203°
2026-05-06 19:30 16.03438 4.99914 33788 ft 465 kts 203°
2026-05-06 19:31 15.97439 4.97620 33790 ft 463 kts 203°
2026-05-06 19:31 15.88264 4.94108 33791 ft 470 kts 202°
2026-05-06 19:32 15.82130 4.91763 33789 ft 470 kts 202°
2026-05-06 19:32 15.75997 4.89414 33791 ft 470 kts 202°
2026-05-06 19:33 15.69870 4.87074 33789 ft 467 kts 202°
2026-05-06 19:33 15.63822 4.84766 33787 ft 462 kts 202°
2026-05-06 19:34 15.57730 4.82443 33793 ft 469 kts 202°
2026-05-06 19:34 15.51636 4.80121 33789 ft 469 kts 202°
2026-05-06 19:35 15.45504 4.77790 33789 ft 469 kts 202°
2026-05-06 19:35 15.39371 4.75463 33790 ft 469 kts 202°
2026-05-06 19:36 15.33261 4.73142 33788 ft 464 kts 202°
2026-05-06 19:36 15.27220 4.70847 33792 ft 465 kts 202°
2026-05-06 19:37 15.21104 4.68521 33792 ft 470 kts 202°
2026-05-06 19:37 15.15999 4.66584 33789 ft 470 kts 202°
2026-05-06 19:38 15.08823 4.63860 33791 ft 470 kts 202°
2026-05-06 19:38 15.02716 4.61548 33789 ft 469 kts 202°
2026-05-06 19:39 14.96745 4.59003 33783 ft 458 kts 212°
2026-05-06 19:39 14.94160 4.57096 33786 ft 457 kts 224°
2026-05-06 19:39 14.92015 4.54683 33792 ft 457 kts 236°
2026-05-06 19:40 14.88610 4.49116 33795 ft 458 kts 240°
2026-05-06 19:40 14.85263 4.43500 33789 ft 459 kts 240°
2026-05-06 19:41 14.81883 4.37904 33789 ft 459 kts 239°
2026-05-06 19:41 14.78499 4.32328 33788 ft 456 kts 239°
2026-05-06 19:42 14.75158 4.26817 33787 ft 452 kts 239°
2026-05-06 19:42 14.71792 4.21273 33793 ft 459 kts 239°
2026-05-06 19:43 14.68390 4.15675 33790 ft 459 kts 239°
2026-05-06 19:43 14.64989 4.10085 33790 ft 459 kts 239°
2026-05-06 19:44 14.61578 4.04503 33790 ft 459 kts 239°
2026-05-06 19:44 14.58188 3.98947 33789 ft 454 kts 239°
2026-05-06 19:45 14.54832 3.93442 33792 ft 456 kts 239°
2026-05-06 19:45 14.51450 3.87904 33792 ft 460 kts 239°
2026-05-06 19:46 14.48044 3.82323 33790 ft 460 kts 239°
2026-05-06 19:46 14.44628 3.76733 33790 ft 460 kts 239°
2026-05-06 19:47 14.41215 3.71154 33789 ft 458 kts 239°
2026-05-06 19:47 14.37841 3.65637 33785 ft 451 kts 239°
2026-05-06 19:48 14.34459 3.60113 33794 ft 459 kts 239°
2026-05-06 19:48 14.31044 3.54534 33790 ft 460 kts 239°
2026-05-06 19:49 14.27625 3.48951 33789 ft 460 kts 239°
2026-05-06 19:49 14.24206 3.43382 33790 ft 460 kts 239°
2026-05-06 19:50 14.20781 3.37820 33789 ft 457 kts 239°
2026-05-06 19:50 14.17397 3.32338 33789 ft 454 kts 239°
2026-05-06 19:51 14.13995 3.26835 33793 ft 460 kts 239°
2026-05-06 19:51 14.10558 3.21272 33789 ft 460 kts 239°
2026-05-06 19:52 14.07121 3.15709 33789 ft 460 kts 239°
2026-05-06 19:52 14.03684 3.10143 33790 ft 460 kts 239°
2026-05-06 19:53 14.00266 3.04611 33787 ft 453 kts 239°
2026-05-06 19:53 13.96872 2.99137 33793 ft 457 kts 239°
2026-05-06 19:54 13.93430 2.93585 33792 ft 461 kts 239°
2026-05-06 19:54 13.89980 2.88009 33789 ft 461 kts 239°
2026-05-06 19:55 13.86559 2.82485 33788 ft 461 kts 239°
2026-05-06 19:55 13.83109 2.76925 33790 ft 459 kts 239°
2026-05-06 19:56 13.79695 2.71429 33787 ft 452 kts 239°
2026-05-06 19:56 13.76275 2.65921 33794 ft 461 kts 239°
2026-05-06 19:57 13.72816 2.60357 33790 ft 461 kts 239°
2026-05-06 19:57 13.69353 2.54796 33790 ft 461 kts 239°
2026-05-06 19:58 13.65893 2.49237 33789 ft 461 kts 239°
2026-05-06 19:58 13.62441 2.43697 33787 ft 457 kts 239°
2026-05-06 19:59 13.59610 2.39145 33789 ft 454 kts 239°
2026-05-06 19:59 13.55610 2.32719 33793 ft 461 kts 239°
2026-05-06 20:00 13.52711 2.28070 33788 ft 461 kts 239°
2026-05-06 20:00 13.48888 2.22776 33786 ft 464 kts 226°
2026-05-06 20:01 13.46393 2.20732 33788 ft 467 kts 214°
2026-05-06 20:01 13.43484 2.19242 33790 ft 469 kts 202°
2026-05-06 20:01 13.37229 2.17310 33790 ft 467 kts 197°
2026-05-06 20:02 13.31025 2.15466 33789 ft 465 kts 198°
2026-05-06 20:02 13.24770 2.13558 33793 ft 470 kts 198°
2026-05-06 20:03 13.18494 2.11639 33789 ft 470 kts 198°
2026-05-06 20:03 13.12217 2.09724 33791 ft 470 kts 198°
2026-05-06 20:04 13.05945 2.07810 33790 ft 470 kts 198°
2026-05-06 20:04 12.99712 2.05911 33787 ft 463 kts 198°
2026-05-06 20:05 12.93550 2.04034 33793 ft 468 kts 198°
2026-05-06 20:05 12.87281 2.02122 33791 ft 470 kts 198°
2026-05-06 20:06 12.81005 2.00213 33791 ft 470 kts 198°
2026-05-06 20:06 12.74736 1.98306 33799 ft 470 kts 198°
2026-05-06 20:07 12.68508 1.96411 33799 ft 468 kts 198°
2026-05-06 20:07 12.62319 1.94528 33797 ft 461 kts 198°
2026-05-06 20:08 12.56097 1.92636 33804 ft 469 kts 198°
2026-05-06 20:08 12.49820 1.90731 33806 ft 470 kts 198°
2026-05-06 20:09 12.43594 1.88842 33809 ft 470 kts 198°
2026-05-06 20:09 12.37327 1.86941 33810 ft 469 kts 198°
2026-05-06 20:10 12.31088 1.85049 33815 ft 465 kts 198°
2026-05-06 20:10 12.24918 1.83179 33821 ft 465 kts 198°
2026-05-06 20:11 12.18667 1.81286 33825 ft 469 kts 198°
2026-05-06 20:11 12.12406 1.79390 33827 ft 469 kts 198°
2026-05-06 20:12 12.06139 1.77493 33831 ft 469 kts 198°
2026-05-06 20:12 11.99877 1.75597 33839 ft 468 kts 198°
2026-05-06 20:13 11.93711 1.73735 33837 ft 461 kts 198°
2026-05-06 20:13 11.87524 1.71865 33851 ft 468 kts 198°
2026-05-06 20:14 11.81266 1.69973 33850 ft 469 kts 198°
2026-05-06 20:14 11.75000 1.68084 33853 ft 469 kts 198°
2026-05-06 20:15 11.68741 1.66198 33859 ft 469 kts 198°
2026-05-06 20:15 11.62494 1.64309 33863 ft 466 kts 198°
2026-05-06 20:16 11.56323 1.62448 33868 ft 462 kts 198°
2026-05-06 20:16 11.50097 1.60571 33879 ft 469 kts 198°
2026-05-06 20:17 11.43836 1.58687 33879 ft 469 kts 198°
2026-05-06 20:17 11.37613 1.56815 33879 ft 469 kts 198°
2026-05-06 20:18 11.31354 1.54936 33885 ft 469 kts 197°
2026-05-06 20:18 11.25122 1.53066 33885 ft 463 kts 198°
2026-05-06 20:19 11.18953 1.51207 33896 ft 465 kts 197°
2026-05-06 20:19 11.12714 1.49328 33904 ft 469 kts 197°
2026-05-06 20:20 11.06448 1.47442 33907 ft 469 kts 197°
2026-05-06 20:20 11.00218 1.45574 33913 ft 469 kts 197°
2026-05-06 20:21 10.93967 1.43685 33911 ft 468 kts 197°
2026-05-06 20:21 10.87749 1.41800 33917 ft 462 kts 197°
2026-05-06 20:22 10.81591 1.39938 33922 ft 465 kts 197°
2026-05-06 20:22 10.75357 1.38053 33930 ft 468 kts 197°
2026-05-06 20:23 10.69100 1.36164 33929 ft 469 kts 197°
2026-05-06 20:23 10.62844 1.34276 33935 ft 469 kts 197°
2026-05-06 20:24 10.56593 1.32388 33936 ft 468 kts 197°
2026-05-06 20:24 10.50376 1.30513 33935 ft 462 kts 197°
2026-05-06 20:25 10.44261 1.28667 33950 ft 465 kts 197°
2026-05-06 20:25 10.38023 1.26784 33958 ft 468 kts 197°
2026-05-06 20:26 10.31771 1.24902 33953 ft 468 kts 197°
2026-05-06 20:26 10.25525 1.23020 33946 ft 468 kts 197°
2026-05-06 20:27 10.19274 1.21137 33956 ft 468 kts 197°
2026-05-06 20:27 10.13050 1.19266 33959 ft 463 kts 197°
2026-05-06 20:28 10.06895 1.17413 33960 ft 463 kts 197°
2026-05-06 20:28 10.00666 1.15540 33963 ft 468 kts 197°
2026-05-06 20:29 9.94460 1.13671 33955 ft 468 kts 197°
2026-05-06 20:29 9.88214 1.11796 33960 ft 467 kts 197°
2026-05-06 20:30 9.78866 1.08989 33964 ft 466 kts 197°
2026-05-06 20:31 9.72683 1.07133 33963 ft 459 kts 197°
2026-05-06 20:31 9.66542 1.05289 33962 ft 465 kts 197°
2026-05-06 20:32 9.60323 1.03425 33959 ft 467 kts 197°
2026-05-06 20:32 9.54120 1.01571 33960 ft 467 kts 197°
2026-05-06 20:33 9.47895 0.99703 33958 ft 467 kts 197°
2026-05-06 20:33 9.41775 0.97507 33961 ft 465 kts 201°
2026-05-06 20:34 9.35787 0.95125 33954 ft 457 kts 201°
2026-05-06 20:34 9.29807 0.92773 33956 ft 465 kts 201°
2026-05-06 20:35 9.23757 0.90407 33948 ft 466 kts 201°
2026-05-06 20:35 9.17700 0.88040 33948 ft 466 kts 201°
2026-05-06 20:36 9.11647 0.85677 33938 ft 466 kts 201°
2026-05-06 20:36 9.05591 0.83312 33950 ft 466 kts 201°
2026-05-06 20:37 8.99566 0.80956 33937 ft 460 kts 201°
2026-05-06 20:37 8.93632 0.78639 33936 ft 464 kts 201°
2026-05-06 20:38 8.87588 0.76279 33931 ft 466 kts 201°
2026-05-06 20:38 8.81518 0.73912 33929 ft 466 kts 201°
2026-05-06 20:39 8.75496 0.71563 33922 ft 467 kts 201°
2026-05-06 20:39 8.69434 0.69200 33920 ft 467 kts 201°
2026-05-06 20:40 8.63373 0.66838 33921 ft 467 kts 201°
2026-05-06 20:40 8.57317 0.64476 33920 ft 465 kts 200°
2026-05-06 20:41 8.51331 0.62146 33909 ft 458 kts 200°
2026-05-06 20:41 8.45316 0.59805 33914 ft 466 kts 200°
2026-05-06 20:42 8.39292 0.57456 33910 ft 467 kts 200°
2026-05-06 20:42 8.33224 0.55098 33908 ft 467 kts 200°
2026-05-06 20:43 8.27153 0.52736 33911 ft 467 kts 200°
2026-05-06 20:43 8.21088 0.50380 33910 ft 466 kts 200°
2026-05-06 20:44 8.15075 0.48039 33906 ft 458 kts 200°
2026-05-06 20:44 8.09082 0.45715 33903 ft 466 kts 200°
2026-05-06 20:45 8.03015 0.43356 33901 ft 467 kts 200°
2026-05-06 20:45 7.96940 0.40999 33898 ft 468 kts 200°
2026-05-06 20:46 7.90906 0.38656 33900 ft 468 kts 200°
2026-05-06 20:46 7.84830 0.36296 33900 ft 468 kts 200°
2026-05-06 20:47 7.78776 0.33947 33900 ft 463 kts 200°
2026-05-06 20:47 7.72790 0.31625 33898 ft 464 kts 200°
2026-05-06 20:48 7.66719 0.29271 33904 ft 468 kts 200°
2026-05-06 20:48 7.61670 0.27312 33904 ft 468 kts 200°
2026-05-06 20:49 7.54606 0.24578 33896 ft 468 kts 200°
2026-05-06 20:49 7.48528 0.22226 33894 ft 467 kts 200°
2026-05-06 20:50 7.43539 0.20295 33887 ft 461 kts 200°
2026-05-06 20:50 7.37518 0.17960 33891 ft 466 kts 200°
2026-05-06 20:51 7.31442 0.15609 33885 ft 468 kts 200°
2026-05-06 20:51 7.25360 0.13254 33885 ft 468 kts 200°
2026-05-06 20:52 7.19302 0.10909 33169 ft 464 kts 200°
2026-05-06 20:52 7.16276 0.09740 32162 ft 468 kts 200°
2026-05-06 20:52 7.13219 0.08558 31256 ft 472 kts 200°
2026-05-06 20:52 7.10147 0.07371 30375 ft 474 kts 200°
2026-05-06 20:53 7.07061 0.06179 29457 ft 476 kts 200°
2026-05-06 20:53 7.03958 0.04981 28523 ft 478 kts 200°
2026-05-06 20:53 7.00845 0.03777 27591 ft 479 kts 200°
2026-05-06 20:53 6.97726 0.02573 26580 ft 482 kts 200°
2026-05-06 20:54 6.94587 0.01361 25507 ft 485 kts 200°
2026-05-06 20:54 6.91475 0.00156 24495 ft 486 kts 200°
2026-05-06 20:54 6.88327 -0.01064 23597 ft 484 kts 200°
2026-05-06 20:54 6.85198 -0.02281 22813 ft 479 kts 200°
2026-05-06 20:55 6.82109 -0.03478 22127 ft 472 kts 200°
2026-05-06 20:55 6.79002 -0.04677 21674 ft 480 kts 200°
2026-05-06 20:55 6.75888 -0.05879 21257 ft 475 kts 200°
2026-05-06 20:55 6.72835 -0.07058 20674 ft 465 kts 200°
2026-05-06 20:56 6.69832 -0.08215 19999 ft 458 kts 200°
2026-05-06 20:56 6.66873 -0.09343 19322 ft 451 kts 199°
2026-05-06 20:56 6.63866 -0.10150 18646 ft 444 kts 188°
2026-05-06 20:56 6.60813 -0.10323 17965 ft 438 kts 176°
2026-05-06 20:57 6.57779 -0.10061 17275 ft 434 kts 173°
2026-05-06 20:57 6.54787 -0.09742 16642 ft 430 kts 173°
2026-05-06 20:57 6.51824 -0.09430 16044 ft 425 kts 173°
2026-05-06 20:57 6.48899 -0.09131 15462 ft 420 kts 173°
2026-05-06 20:58 6.46044 -0.08846 14883 ft 416 kts 173°
2026-05-06 20:58 6.43180 -0.08562 14370 ft 410 kts 173°
2026-05-06 20:58 6.40364 -0.08284 13910 ft 404 kts 173°
2026-05-06 20:58 6.37581 -0.08008 13468 ft 401 kts 173°
2026-05-06 20:59 6.34810 -0.07735 12957 ft 398 kts 173°
2026-05-06 20:59 6.32064 -0.07465 12397 ft 396 kts 172°
2026-05-06 20:59 6.29343 -0.07197 11901 ft 389 kts 172°
2026-05-06 20:59 6.26697 -0.06936 11580 ft 375 kts 172°
2026-05-06 21:00 6.24153 -0.06686 11345 ft 360 kts 172°
2026-05-06 21:00 6.21715 -0.06446 11144 ft 345 kts 172°
2026-05-06 21:00 6.19377 -0.06215 10959 ft 330 kts 173°
2026-05-06 21:00 6.17133 -0.05993 10774 ft 317 kts 173°
2026-05-06 21:01 6.14983 -0.05781 10553 ft 306 kts 173°
2026-05-06 21:01 6.12872 -0.05572 10076 ft 304 kts 173°
2026-05-06 21:01 6.10765 -0.05364 9571 ft 303 kts 173°
2026-05-06 21:01 6.08668 -0.05156 9120 ft 301 kts 174°
2026-05-06 21:02 6.06587 -0.04952 8668 ft 299 kts 174°
2026-05-06 21:02 6.04524 -0.04748 8220 ft 297 kts 174°
2026-05-06 21:02 6.02474 -0.04545 7765 ft 295 kts 174°
2026-05-06 21:02 6.00437 -0.04343 7323 ft 293 kts 174°
2026-05-06 21:03 5.98447 -0.04150 6980 ft 288 kts 175°
2026-05-06 21:03 5.96484 -0.03966 6788 ft 277 kts 175°
2026-05-06 21:03 5.94606 -0.03787 6645 ft 265 kts 175°
2026-05-06 21:03 5.92807 -0.03668 6504 ft 252 kts 183°
2026-05-06 21:04 5.91139 -0.04025 6298 ft 242 kts 201°
2026-05-06 21:04 5.89588 -0.04670 6001 ft 240 kts 204°
2026-05-06 21:04 5.88058 -0.05335 5700 ft 239 kts 202°
2026-05-06 21:04 5.86531 -0.05971 5392 ft 237 kts 202°
2026-05-06 21:05 5.85009 -0.06601 5082 ft 235 kts 202°
2026-05-06 21:05 5.83498 -0.07226 4773 ft 234 kts 202°
2026-05-06 21:05 5.82001 -0.07845 4465 ft 232 kts 202°
2026-05-06 21:05 5.80515 -0.08459 4159 ft 230 kts 202°
2026-05-06 21:06 5.79040 -0.09070 3852 ft 228 kts 202°
2026-05-06 21:06 5.77583 -0.09672 3547 ft 224 kts 202°
2026-05-06 21:06 5.76181 -0.10251 3257 ft 218 kts 202°
2026-05-06 21:06 5.74799 -0.10823 2972 ft 212 kts 202°
2026-05-06 21:07 5.73478 -0.11369 2745 ft 196 kts 202°
2026-05-06 21:07 5.72269 -0.11869 2504 ft 182 kts 202°
2026-05-06 21:07 5.71131 -0.12340 2245 ft 173 kts 202°
2026-05-06 21:07 5.70044 -0.12790 1997 ft 165 kts 202°
2026-05-06 21:08 5.69010 -0.13217 1793 ft 155 kts 202°
2026-05-06 21:08 5.68088 -0.13599 1601 ft 137 kts 202°
2026-05-06 21:08 5.67209 -0.13962 1413 ft 136 kts 202°
2026-05-06 21:08 5.66333 -0.14324 1228 ft 136 kts 202°
2026-05-06 21:09 5.65458 -0.14686 1048 ft 136 kts 202°
2026-05-06 21:09 5.64586 -0.15046 868 ft 135 kts 202°
2026-05-06 21:09 5.63719 -0.15404 683 ft 135 kts 202°
2026-05-06 21:09 5.62852 -0.15763 510 ft 135 kts 202°
2026-05-06 21:10 5.61993 -0.16117 330 ft 135 kts 202°
2026-05-06 21:10 5.61138 -0.16477 226 ft 125 kts 202°
2026-05-06 21:10 5.60586 -0.16699 226 ft 43 kts 203°
2026-05-06 21:10 5.60361 -0.16781 224 ft 35 kts 204°
2026-05-06 21:11 5.60137 -0.16877 217 ft 36 kts 203°
2026-05-06 21:11 5.59946 -0.16985 212 ft 27 kts 225°
2026-05-06 21:11 5.59835 -0.17114 211 ft 16 kts 242°
2026-05-06 21:11 5.59876 -0.17195 215 ft 18 kts
2026-05-06 21:12 5.59998 -0.17147 212 ft 20 kts 22°
2026-05-06 21:12 5.60101 -0.17106 216 ft 13 kts
2026-05-06 21:12 5.60149 -0.17159 216 ft 7 kts 291°
2026-05-06 21:12 5.60162 -0.17190 217 ft 2 kts 292°
2026-05-06 21:13 5.60163 -0.17192 217 ft 0 kts 292°